When you browse on this site, cookies collect data to enhance your experience and personalize the content and advertising you see.
Visit our Privacy Policy to learn more. By continuing to use the site, you agree to this use of cookies and data.
  • En España
  • Lista de países
  • Para 7 días
  • Temperatura del agua
  • El tiempo en el mapa
  • Informadores
  • user-avatar
    Iniciar sesión

    Tiempo cada hora Chhunchhon

    Hoy, 1 Junio, Lunes

    Tiempo Temperatura Precipitaciones Viento Presión Humedad
    00:00 +20°C° 0 mm 1 mps 743 mmHg 63%
    01:00 +19°C° 0.1 mm 1 mps 743 mmHg 71%
    02:00 +19°C° 0.1 mm 1 mps 742 mmHg 80%
    03:00 +18°C° 0 mm 1 mps 742 mmHg 88%
    04:00 +17°C° 0.1 mm 2 mps 742 mmHg 90%
    05:00 +17°C° 0.1 mm 2 mps 742 mmHg 92%
    06:00 +17°C° 0.1 mm 3 mps 742 mmHg 94%
    07:00 +18°C° 0.1 mm 3 mps 742 mmHg 84%
    08:00 +19°C° 0.1 mm 4 mps 742 mmHg 74%
    09:00 +21°C° 0 mm 3 mps 742 mmHg 64%
    10:00 +22°C° 0 mm 4 mps 742 mmHg 55%
    11:00 +23°C° 0 mm 4 mps 742 mmHg 47%
    12:00 +25°C° 0 mm 5 mps 742 mmHg 38%
    13:00 +26°C° 0 mm 5 mps 742 mmHg 36%
    14:00 +26°C° 0 mm 6 mps 742 mmHg 34%
    15:00 +26°C° 0 mm 6 mps 741 mmHg 31%
    16:00 +25°C° 0 mm 5 mps 742 mmHg 34%
    17:00 +23°C° 0 mm 5 mps 742 mmHg 38%
    18:00 +22°C° 0 mm 4 mps 742 mmHg 41%
    19:00 +20°C° 0 mm 3 mps 742 mmHg 48%
    20:00 +17°C° 0 mm 2 mps 742 mmHg 56%
    21:00 +15°C° 0 mm 1 mps 742 mmHg 63%
    22:00 +14°C° 0 mm 1 mps 743 mmHg 65%
    23:00 +13°C° 0 mm 0 mps 743 mmHg 66%

    Mañana, 2 Junio, Martes

    Tiempo Temperatura Precipitaciones Viento Presión Humedad
    00:00 +12°C° 0 mm 0 mps 743 mmHg 68%
    01:00 +12°C° 0 mm 0 mps 743 mmHg 69%
    02:00 +13°C° 0 mm 1 mps 742 mmHg 70%
    03:00 +13°C° 0 mm 1 mps 742 mmHg 70%
    04:00 +12°C° 0 mm 0 mps 742 mmHg 71%
    05:00 +12°C° 0 mm 0 mps 742 mmHg 72%
    06:00 +13°C° 0 mm 0 mps 743 mmHg 73%
    07:00 +14°C° 0 mm 0 mps 743 mmHg 67%
    08:00 +16°C° 0 mm 0 mps 742 mmHg 62%
    09:00 +18°C° 0 mm 0 mps 742 mmHg 56%
    10:00 +19°C° 0.4 mm 1 mps 742 mmHg 64%
    11:00 +18°C° 0.4 mm 1 mps 742 mmHg 73%
    12:00 +16°C° 0.4 mm 2 mps 742 mmHg 81%
    13:00 +16°C° 0.1 mm 1 mps 741 mmHg 79%
    14:00 +18°C° 0.1 mm 1 mps 740 mmHg 77%
    15:00 +17°C° 0.1 mm 0 mps 739 mmHg 75%
    16:00 +17°C° 0 mm 0 mps 739 mmHg 72%
    17:00 +20°C° 0 mm 1 mps 739 mmHg 69%
    18:00 +20°C° 0 mm 1 mps 739 mmHg 66%
    19:00 +20°C° 0 mm 1 mps 739 mmHg 70%
    20:00 +19°C° 0 mm 1 mps 738 mmHg 74%
    21:00 +18°C° 0 mm 2 mps 738 mmHg 78%
    22:00 +19°C° 0.1 mm 1 mps 738 mmHg 84%
    23:00 +19°C° 0.1 mm 1 mps 738 mmHg 91%

    Pasado mañana, 3 Junio, Miércoles

    Tiempo Temperatura Precipitaciones Viento Presión Humedad
    00:00 +19°C° 0.1 mm 1 mps 739 mmHg 97%
    01:00 +18°C° 0.1 mm 1 mps 738 mmHg 97%
    02:00 +18°C° 0.1 mm 1 mps 738 mmHg 97%
    03:00 +18°C° 0.1 mm 1 mps 738 mmHg 97%
    04:00 +18°C° 0 mm 1 mps 738 mmHg 97%
    05:00 +16°C° 0 mm 1 mps 738 mmHg 97%
    06:00 +15°C° 0 mm 0 mps 738 mmHg 97%
    07:00 +18°C° 0 mm 1 mps 738 mmHg 92%
    08:00 +19°C° 0 mm 1 mps 738 mmHg 86%
    09:00 +21°C° 0 mm 1 mps 738 mmHg 81%
    10:00 +23°C° 0 mm 1 mps 738 mmHg 70%
    11:00 +25°C° 0 mm 1 mps 738 mmHg 60%
    12:00 +27°C° 0 mm 2 mps 738 mmHg 49%
    13:00 +28°C° 0 mm 2 mps 737 mmHg 45%
    14:00 +29°C° 0 mm 3 mps 737 mmHg 42%
    15:00 +30°C° 0 mm 3 mps 736 mmHg 38%
    16:00 +29°C° 0 mm 3 mps 736 mmHg 42%
    17:00 +28°C° 0 mm 2 mps 736 mmHg 45%
    18:00 +27°C° 0 mm 2 mps 736 mmHg 49%
    19:00 +25°C° 0 mm 2 mps 736 mmHg 57%
    20:00 +22°C° 0 mm 1 mps 736 mmHg 64%
    21:00 +20°C° 0 mm 1 mps 736 mmHg 72%
    22:00 +19°C° 0 mm 1 mps 736 mmHg 78%
    23:00 +18°C° 0 mm 1 mps 736 mmHg 84%

    4 Junio, Jueves

    Tiempo Temperatura Precipitaciones Viento Presión Humedad
    00:00 +17°C° 0 mm 2 mps 737 mmHg 89%
    01:00 +18°C° 0 mm 1 mps 737 mmHg 90%
    02:00 +18°C° 0 mm 1 mps 737 mmHg 90%
    03:00 +19°C° 0 mm 1 mps 737 mmHg 90%
    04:00 +19°C° 0 mm 1 mps 737 mmHg 93%
    05:00 +19°C° 0 mm 1 mps 737 mmHg 95%
    06:00 +16°C° 0 mm 0 mps 738 mmHg 97%
    07:00 +20°C° 0 mm 1 mps 738 mmHg 85%
    08:00 +22°C° 0 mm 1 mps 738 mmHg 74%
    09:00 +24°C° 0 mm 2 mps 738 mmHg 63%
    10:00 +26°C° 0 mm 3 mps 738 mmHg 52%
    11:00 +28°C° 0 mm 4 mps 738 mmHg 41%
    12:00 +30°C° 0 mm 5 mps 738 mmHg 30%
    13:00 +30°C° 0 mm 5 mps 738 mmHg 30%
    14:00 +30°C° 0 mm 5 mps 738 mmHg 30%
    15:00 +30°C° 0 mm 5 mps 738 mmHg 30%
    16:00 +29°C° 0 mm 4 mps 738 mmHg 36%
    17:00 +28°C° 0 mm 3 mps 738 mmHg 42%
    18:00 +27°C° 0 mm 2 mps 738 mmHg 48%
    19:00 +24°C° 0 mm 2 mps 738 mmHg 55%
    20:00 +21°C° 0 mm 1 mps 739 mmHg 61%
    21:00 +19°C° 0 mm 1 mps 739 mmHg 67%
    22:00 +18°C° 0 mm 1 mps 739 mmHg 68%
    23:00 +16°C° 0 mm 1 mps 740 mmHg 69%

    5 Junio, Viernes

    Tiempo Temperatura Precipitaciones Viento Presión Humedad
    00:00 +15°C° 0 mm 0 mps 740 mmHg 70%
    01:00 +14°C° 0 mm 0 mps 740 mmHg 71%
    02:00 +13°C° 0 mm 0 mps 740 mmHg 73%
    03:00 +13°C° 0 mm 0 mps 740 mmHg 74%
    04:00 +13°C° 0 mm 0 mps 740 mmHg 74%
    05:00 +13°C° 0 mm 0 mps 740 mmHg 75%
    06:00 +13°C° 0 mm 0 mps 740 mmHg 75%
    07:00 +16°C° 0 mm 0 mps 741 mmHg 65%
    08:00 +20°C° 0 mm 0 mps 741 mmHg 56%
    09:00 +23°C° 0 mm 0 mps 741 mmHg 47%
    10:00 +25°C° 0 mm 0 mps 741 mmHg 43%
    11:00 +27°C° 0 mm 0 mps 741 mmHg 39%
    12:00 +29°C° 0 mm 0 mps 741 mmHg 35%
    13:00 +31°C° 0 mm 1 mps 741 mmHg 33%
    14:00 +32°C° 0 mm 1 mps 741 mmHg 31%
    15:00 +32°C° 0 mm 2 mps 740 mmHg 30%
    16:00 +31°C° 0 mm 2 mps 740 mmHg 38%
    17:00 +29°C° 0 mm 2 mps 740 mmHg 46%
    18:00 +28°C° 0 mm 1 mps 740 mmHg 54%
    19:00 +26°C° 0 mm 1 mps 740 mmHg 61%
    20:00 +23°C° 0 mm 1 mps 741 mmHg 68%
    21:00 +21°C° 0 mm 1 mps 741 mmHg 74%
    22:00 +18°C° 0 mm 0 mps 741 mmHg 77%
    23:00 +17°C° 0 mm 0 mps 741 mmHg 81%

    6 Junio, Sábado

    Tiempo Temperatura Precipitaciones Viento Presión Humedad
    00:00 +16°C° 0 mm 0 mps 741 mmHg 84%
    01:00 +16°C° 0.2 mm 0 mps 741 mmHg 86%
    02:00 +16°C° 0.2 mm 0 mps 741 mmHg 88%
    03:00 +16°C° 0.2 mm 0 mps 741 mmHg 90%
    04:00 +16°C° 0.1 mm 0 mps 741 mmHg 91%
    05:00 +16°C° 0.1 mm 0 mps 741 mmHg 92%
    06:00 +16°C° 0.1 mm 0 mps 741 mmHg 93%
    07:00 +19°C° 0 mm 0 mps 742 mmHg 83%
    08:00 +21°C° 0 mm 0 mps 742 mmHg 73%
    09:00 +24°C° 0 mm 0 mps 742 mmHg 63%
    10:00 +26°C° 0 mm 0 mps 742 mmHg 55%
    11:00 +28°C° 0 mm 0 mps 742 mmHg 46%
    12:00 +32°C° 0 mm 1 mps 742 mmHg 38%
    13:00 +32°C° 0 mm 1 mps 742 mmHg 35%
    14:00 +33°C° 0 mm 1 mps 742 mmHg 33%
    15:00 +33°C° 0 mm 1 mps 742 mmHg 31%
    16:00 +32°C° 0 mm 1 mps 742 mmHg 37%
    17:00 +31°C° 0 mm 1 mps 742 mmHg 43%
    18:00 +29°C° 0 mm 1 mps 742 mmHg 49%
    19:00 +27°C° 0 mm 1 mps 742 mmHg 57%
    20:00 +24°C° 0 mm 1 mps 743 mmHg 66%
    21:00 +21°C° 0 mm 1 mps 743 mmHg 74%
    22:00 +20°C° 0 mm 1 mps 743 mmHg 77%
    23:00 +19°C° 0 mm 1 mps 743 mmHg 81%
    Mostrar más